Aérodrome :
LOGIN :

S'inscrire | Disclaimer

   EN    FR    IT 

 










Légende :    VFR   VFR Marginal   IFR   IFR Intensif   IFR Très Intensif
Visi : 
Plafond : 
>= 8 km
>= 3000ft
5 à 8 km
1000 à 3000 ft
1500m à 5 km
500 à 1000 ft
800 à 1500m
200 à 500 ft
< 800m
< 200 ft
Symboles :   Orages  Brouillard  Fortes neiges  Fortes précipitations  Vent > 20 kt
SIGMETs :   Divers  Orages  Givrage  Turbulence  Onde Orograph.  Cendres Volcan.






- Altitude de l'aérodrome : 74 ft
- Code IATA : LRH


LFBH - La Rochelle Ile de Ré

DERNIER METAR :
  • 061830Z AUTO 32005KT 290V360 CAVOK 26/14 Q1014 NOSIG

METARs EXPIRÉS :
  • 061800Z AUTO 30009KT CAVOK 27/12 Q1014 NOSIG
  • 061730Z AUTO 31009KT CAVOK 27/12 Q1014 NOSIG
  • 061700Z AUTO 31010KT CAVOK 27/13 Q1014 NOSIG
  • 061630Z AUTO 30010KT CAVOK 28/13 Q1014 NOSIG
  • 061600Z AUTO 30010KT CAVOK 29/13 Q1014 NOSIG

TAF TAF LFBH
Valide du 06 à 18h jusqu'au 07 à 18h UTC


061700Z 0618/0718 30008KT CAVOK
BECMG 0712/0714 23010KT
ATIS : +33 5 46 00 13 92



MET'MAP, la Météo Aéronautique d'un coup d'oeil ! - Copyright ORBIFLY Décembre 2007 - Disclaimer

ORBIFLY MET'MAP TEAM :

Programmation & Développement : Alexandra Zaïnal
Sur une idée originale de : Baudouin d'Aumeries
Assistance à la programmation : Marc-Olivier Méhu
Soutien technique & logistique : Manuel Goepfert

Contact : metmap@orbifly.com




SOURCES & CREDITS :

   NOAA